{"data":{"norad_id":41879,"epoch":"2026-09-18T20:03:38.583072Z","epoch_age_seconds":170852,"freshness":"FRESH","line1":"1 41879U 16075A   26261.83586323 -.00000207  00000+0  00000+0 0  9991","line2":"2 41879   0.0188 128.6323 0000095 191.1611 128.6740  1.00270580 35758","mean_motion":1.0027058,"eccentricity":9.5e-6,"inclination_deg":0.0188,"raan_deg":128.6323,"arg_perigee_deg":191.1611,"mean_anomaly_deg":128.674,"bstar":0,"rev_number":3575,"period_min":1436.1141622996,"perigee_km":35786.532201654,"apogee_km":35787.333337979,"semimajor_km":42165.069769816,"source":"CELESTRAK","updated_at":"2026-09-20T09:00:35.249336Z"}}